| time (UTC) | temp F | wind direction | speed MPH | gust MPH | rain 1hr in | rain 24hr in | rain mn in | humidity % | barometer mb |
| 20260504080841 | 59 | 174 | 2.0 | 6.0 | 0.00 | 0.00 | 0.00 | 88 | 1013.2 |
| 20260504045332 | 51 | 254 | 0.0 | 0.0 | 0.00 | 0.00 | 0.00 | 99 | 1012.3 |
| 20260504043832 | 51 | 254 | 0.0 | 0.0 | 0.00 | 0.00 | 0.00 | 99 | 1012.4 |
| 20260504042331 | 50 | 197 | 2.0 | 4.0 | 0.00 | 0.00 | 0.00 | 99 | 1012.4 |
| 20260504040832 | 50 | 182 | 2.0 | 4.0 | 0.00 | 0.00 | 0.00 | 99 | 1012.4 |
| 20260504035331 | 50 | 186 | 2.0 | 4.0 | 0.00 | 0.00 | 0.00 | 99 | 1012.3 |
| 20260504033830 | 50 | 183 | 4.0 | 4.0 | 0.00 | 0.00 | 0.00 | 99 | 1012.4 |
| 20260504032330 | 50 | 177 | 2.0 | 4.0 | 0.00 | 0.00 | 0.00 | 99 | 1012.2 |
| 20260504030830 | 50 | 194 | 2.0 | 2.0 | 0.00 | 0.00 | 0.00 | 99 | 1012.1 |
| 20260504025330 | 50 | 199 | 2.0 | 2.0 | 0.00 | 0.00 | 0.00 | 98 | 1012.0 |
| 20260504023830 | 51 | 203 | 2.0 | 2.0 | 0.00 | 0.00 | 0.00 | 99 | 1011.9 |
| 20260504022330 | 50 | 195 | 0.0 | 2.0 | 0.00 | 0.00 | 0.00 | 98 | 1011.8 |
| 20260504020829 | 51 | 196 | 0.0 | 2.0 | 0.00 | 0.00 | 0.00 | 99 | 1011.8 |
| 20260504015329 | 53 | 211 | 2.0 | 4.0 | 0.00 | 0.00 | 0.00 | 99 | 1011.8 |
| 20260504013829 | 53 | 217 | 2.0 | 4.0 | 0.00 | 0.00 | 0.00 | 99 | 1011.7 |
| 20260504012329 | 53 | 229 | 2.0 | 6.0 | 0.00 | 0.00 | 0.00 | 99 | 1011.7 |
| 20260504010828 | 53 | 238 | 4.0 | 8.0 | 0.00 | 0.00 | 0.00 | 98 | 1011.8 |
| 20260504005328 | 55 | 238 | 6.0 | 11.0 | 0.00 | 0.00 | 0.00 | 97 | 1011.8 |
| 20260504003827 | 55 | 238 | 6.0 | 11.0 | 0.00 | 0.00 | 0.00 | 97 | 1011.8 |
| 20260504002327 | 55 | 217 | 6.0 | 8.0 | 0.00 | 0.00 | 0.00 | 98 | 1011.7 |
| 20260504000827 | 55 | 220 | 4.0 | 6.0 | 0.00 | 0.00 | 0.00 | 98 | 1011.7 |
| 20260503235326 | 55 | 218 | 4.0 | 6.0 | 0.00 | 0.00 | 0.00 | 99 | 1011.8 |
| 20260503233826 | 53 | 205 | 4.0 | 6.0 | 0.00 | 0.00 | 0.00 | 99 | 1011.7 |
| 20260503232325 | 53 | 209 | 4.0 | 6.0 | 0.00 | 0.00 | 0.00 | 98 | 1011.5 |
| 20260503230825 | 55 | 208 | 4.0 | 6.0 | 0.00 | 0.00 | 0.00 | 97 | 1011.4 |
| 20260503225323 | 55 | 207 | 4.0 | 6.0 | 0.00 | 0.00 | 0.00 | 97 | 1011.4 |
| 20260503223823 | 55 | 197 | 4.0 | 6.0 | 0.00 | 0.00 | 0.00 | 97 | 1011.4 |
| 20260503222323 | 55 | 196 | 4.0 | 6.0 | 0.00 | 0.00 | 0.00 | 97 | 1011.4 |
| 20260503220823 | 57 | 192 | 2.0 | 4.0 | 0.00 | 0.00 | 0.00 | 97 | 1011.4 |
| 20260503215322 | 55 | 194 | 2.0 | 4.0 | 0.00 | 0.00 | 0.00 | 97 | 1011.4 |
| 20260503213822 | 55 | 194 | 2.0 | 6.0 | 0.00 | 0.00 | 0.00 | 97 | 1011.3 |
| 20260503212322 | 55 | 195 | 4.0 | 6.0 | 0.00 | 0.00 | 0.00 | 97 | 1011.3 |
| 20260503210822 | 57 | 198 | 4.0 | 6.0 | 0.00 | 0.00 | 0.00 | 96 | 1011.4 |
| 20260503205320 | 57 | 198 | 4.0 | 6.0 | 0.00 | 0.00 | 0.00 | 96 | 1011.4 |
| 20260503203820 | 57 | 199 | 4.0 | 8.0 | 0.00 | 0.00 | 0.00 | 96 | 1011.5 |
| 20260503202320 | 57 | 200 | 6.0 | 8.0 | 0.00 | 0.00 | 0.00 | 95 | 1011.4 |
| 20260503200820 | 57 | 196 | 6.0 | 8.0 | 0.00 | 0.00 | 0.00 | 95 | 1011.3 |
| 20260503195320 | 57 | 194 | 6.0 | 8.0 | 0.00 | 0.00 | 0.00 | 95 | 1011.3 |
| 20260503193821 | 57 | 197 | 6.0 | 8.0 | 0.00 | 0.00 | 0.00 | 95 | 1011.3 |
| 20260503192319 | 57 | 201 | 6.0 | 11.0 | 0.00 | 0.00 | 0.00 | 94 | 1011.2 |
| 20260503190820 | 57 | 203 | 6.0 | 11.0 | 0.00 | 0.00 | 0.00 | 94 | 1011.1 |
| 20260503185319 | 57 | 202 | 6.0 | 8.0 | 0.00 | 0.00 | 0.00 | 95 | 1011.0 |
| 20260503183819 | 57 | 201 | 4.0 | 11.0 | 0.00 | 0.00 | 0.00 | 96 | 1010.8 |
| 20260503182319 | 57 | 200 | 6.0 | 13.0 | 0.00 | 0.00 | 0.00 | 95 | 1010.7 |
| 20260503180818 | 57 | 203 | 8.0 | 13.0 | 0.00 | 0.00 | 0.00 | 94 | 1010.8 |
| 20260503175316 | 57 | 190 | 6.0 | 11.0 | 0.00 | 0.00 | 0.00 | 95 | 1010.7 |
| 20260503173817 | 57 | 194 | 6.0 | 13.0 | 0.00 | 0.00 | 0.00 | 94 | 1010.7 |
| 20260503172315 | 57 | 198 | 6.0 | 13.0 | 0.00 | 0.00 | 0.00 | 94 | 1010.8 |
| 20260503170814 | 57 | 180 | 6.0 | 13.0 | 0.00 | 0.00 | 0.00 | 95 | 1010.7 |
| 20260503150812 | 62 | 206 | 11.0 | 17.0 | 0.00 | 0.00 | 0.00 | 68 | 1010.2 |